Location: Austin
(30.3000°N, 97.7500°W)
Time: 14:41:45
(UTC-05:00)

Helios 1A Rocket - Visible Passes

Search period start: 09 May 2026 00:00
Search period end: 19 May 2026 00:00
Orbit: 406 x 416 km, 98.3° (Epoch: 9 May)

Date Brightness Start Highest point End Pass type
(mag) Time Alt. Az. Time Alt. Az. Time Alt. Az.
9 May 2.1 21:28:35 10° NNE 21:31:43 88° E 21:34:34 12° SSW visible
10 May 4.1 20:43:10 10° ENE 20:44:53 14° E 20:46:35 10° SE visible
10 May 5.2 22:14:32 10° NNW 22:16:37 17° WNW 22:18:42 10° WSW visible
11 May 2.0 21:26:51 10° NNE 21:29:59 77° ESE 21:32:45 13° S visible
12 May 4.2 20:41:37 10° ENE 20:43:01 12° E 20:44:25 10° ESE visible
12 May 5.1 22:12:32 10° NNW 22:14:47 18° WNW 22:17:02 10° WSW visible
13 May 2.1 21:24:54 10° NNE 21:28:01 67° ESE 21:30:44 13° S visible
14 May 4.3 20:40:01 10° ENE 20:40:56 11° E 20:41:51 10° ESE visible
14 May 4.9 22:10:20 10° NNW 22:12:44 21° WNW 22:15:09 10° WSW visible
15 May 2.2 21:22:46 10° NNE 21:25:51 57° ESE 21:28:30 13° S visible
16 May 4.6 22:07:54 10° NNW 22:10:28 23° WNW 22:13:01 10° SW visible
17 May 2.4 21:20:24 10° NNE 21:23:28 48° ESE 21:26:03 13° S visible
18 May 4.4 22:05:18 10° NNW 22:07:59 26° WNW 22:10:40 10° SW visible
